Unlu-5 — TCON5 — position and weather

sailwx.info

Track history (hours):
 
Tides and Currents Weather Stations Pressure Air Temp Water Temp Dewpoint Dewpoint Depression Visibility Wind Speed Wind Dir Waves Ship Positions

Unlu-5

Last reported at 2014-Jul-25 00:09 UTC. Time now 2014-Jul-25 15:58 UTC.
Position N 40°10' E 026°23'.

Length 99 m; draft 6.5 m.

Type: Cargo ship. MMSI: 271000854.

Date/timePositionNaut miles runAvg speedWind from/ knotsBaromVisibWave heightAir tempDewpointWater temp
2014-Jul-25 00:09N 40°10' E 026°23'26 8.6
2014-Jul-24 21:07N 40°27' E 026°48'94 8.1
2014-Jul-24 09:28N 40°54' E 028°47'7 7.4
2014-Jul-24 08:33N 40°57' E 028°55'1 0.9
2014-Jul-24 07:28N 40°58' E 028°56'0 0.0
2014-Jul-24 06:28N 40°58' E 028°56'0 0.0
2014-Jul-24 05:31N 40°58' E 028°56'0 0.0
2014-Jul-24 01:33N 40°58' E 028°56'  
2014-Jul-19 11:19N 40°59' E 028°60'5 6.8
2014-Jul-19 10:30N 40°54' E 029°00'  
Track history (hours):
 
Tides and Currents Weather Stations Pressure Air Temp Water Temp Dewpoint Dewpoint Depression Visibility Wind Speed Wind Dir Waves Ship Positions

Unlu-5

Last reported at 2014-Jul-25 00:09 UTC. Time now 2014-Jul-25 15:58 UTC.
Position N 40°10' E 026°23'.

Length 99 m; draft 6.5 m.

Type: Cargo ship. MMSI: 271000854.

Date/timePositionNaut miles runAvg speedWind from/ knotsBaromVisibWave heightAir tempDewpointWater temp
2014-Jul-25 00:09N 40°10' E 026°23'26 8.6
2014-Jul-24 21:07N 40°27' E 026°48'94 8.1
2014-Jul-24 09:28N 40°54' E 028°47'7 7.4
2014-Jul-24 08:33N 40°57' E 028°55'1 0.9
2014-Jul-24 07:28N 40°58' E 028°56'0 0.0
2014-Jul-24 06:28N 40°58' E 028°56'0 0.0
2014-Jul-24 05:31N 40°58' E 028°56'0 0.0
2014-Jul-24 01:33N 40°58' E 028°56'  
2014-Jul-19 11:19N 40°59' E 028°60'5 6.8
2014-Jul-19 10:30N 40°54' E 029°00'  

Dump ship's entire track history